Time,TemperatureF,DewpointF,PressureIn,WindDirection,WindDirectionDegrees,WindSpeedMPH,WindSpeedGustMPH,Humidity,HourlyPrecipIn,Conditions,Clouds,dailyrainin,SoftwareType,DateUTC
2013-06-25 00:00:00,68.0,65.0,29.91,WNW,290,0.0,1.0,90,0.00,,,0.07,,2013-06-25 04:00:00,
2013-06-25 00:02:00,68.0,65.0,29.92,WNW,290,0.0,0.0,90,0.00,,,0.07,,2013-06-25 04:02:00,
2013-06-25 00:22:00,68.0,65.0,29.91,WNW,290,0.0,1.0,90,0.00,,,0.07,,2013-06-25 04:22:00,
2013-06-25 00:34:00,68.0,65.0,29.91,WNW,290,0.0,0.0,90,0.00,,,0.07,,2013-06-25 04:34:00,
2013-06-25 00:43:00,68.0,65.0,29.91,WNW,290,0.0,3.0,90,0.00,,,0.07,,2013-06-25 04:43:00,
2013-06-25 00:52:00,68.0,65.0,29.91,WNW,290,0.0,3.0,90,0.00,,,0.07,,2013-06-25 04:52:00,
2013-06-25 01:01:00,69.0,66.0,29.92,NW,313,1.0,5.0,89,0.00,,,0.07,,2013-06-25 05:01:00,
2013-06-25 01:11:00,69.0,66.0,29.92,NW,313,1.0,5.0,89,0.00,,,0.07,,2013-06-25 05:11:00,
2013-06-25 01:22:00,69.0,65.0,29.93,SSW,203,0.0,7.0,88,0.00,,,0.07,,2013-06-25 05:22:00,
2013-06-25 01:32:00,68.0,65.0,29.92,SSW,208,0.0,4.0,89,0.00,,,0.07,,2013-06-25 05:32:00,
2013-06-25 01:44:00,68.0,65.0,29.92,SSW,208,0.0,1.0,89,0.00,,,0.07,,2013-06-25 05:44:00,
2013-06-25 02:01:00,67.0,64.0,29.91,SSW,208,0.0,1.0,89,0.00,,,0.07,,2013-06-25 06:01:00,
2013-06-25 02:22:00,67.0,64.0,29.91,SSW,208,0.0,1.0,89,0.00,,,0.07,,2013-06-25 06:22:00,
2013-06-25 02:34:00,68.0,65.0,29.91,SSW,208,0.0,1.0,90,0.00,,,0.07,,2013-06-25 06:34:00,
2013-06-25 02:43:00,67.0,64.0,29.91,SSW,208,0.0,1.0,89,0.00,,,0.07,,2013-06-25 06:43:00,
2013-06-25 02:52:00,67.0,64.0,29.91,SSW,208,0.0,1.0,89,0.00,,,0.07,,2013-06-25 06:52:00,
2013-06-25 03:22:00,68.0,64.0,29.90,WNW,303,0.0,4.0,87,0.00,,,0.07,,2013-06-25 07:22:00,
2013-06-25 03:33:00,68.0,64.0,29.90,WNW,302,0.0,3.0,86,0.00,,,0.07,,2013-06-25 07:33:00,
2013-06-25 03:43:00,68.0,64.0,29.90,WNW,302,0.0,3.0,86,0.00,,,0.07,,2013-06-25 07:43:00,
2013-06-25 03:52:00,68.0,64.0,29.89,WNW,303,0.0,2.0,87,0.00,,,0.07,,2013-06-25 07:52:00,
2013-06-25 04:22:00,67.0,63.0,29.90,WNW,302,0.0,3.0,88,0.00,,,0.07,,2013-06-25 08:22:00,
2013-06-25 04:34:00,67.0,63.0,29.89,WNW,302,0.0,2.0,88,0.00,,,0.07,,2013-06-25 08:34:00,
2013-06-25 04:43:00,66.0,63.0,29.90,WNW,302,0.0,1.0,89,0.00,,,0.07,,2013-06-25 08:43:00,
2013-06-25 04:53:00,66.0,63.0,29.90,WNW,302,0.0,1.0,89,0.00,,,0.07,,2013-06-25 08:53:00,
2013-06-25 05:02:00,66.0,63.0,29.90,WNW,302,0.0,0.0,89,0.00,,,0.07,,2013-06-25 09:02:00,
2013-06-25 05:22:00,66.0,63.0,29.90,WNW,302,0.0,1.0,90,0.00,,,0.07,,2013-06-25 09:22:00,
2013-06-25 05:33:00,66.0,63.0,29.90,WNW,302,0.0,0.0,90,0.00,,,0.07,,2013-06-25 09:33:00,
2013-06-25 05:43:00,66.0,63.0,29.90,WNW,302,0.0,0.0,90,0.01,,,0.08,,2013-06-25 09:43:00,
2013-06-25 05:53:00,66.0,63.0,29.90,WNW,302,0.0,0.0,90,0.01,,,0.08,,2013-06-25 09:53:00,
2013-06-25 06:22:00,66.0,63.0,29.89,WNW,302,0.0,1.0,91,0.01,,,0.08,,2013-06-25 10:22:00,
2013-06-25 06:33:00,66.0,63.0,29.89,WSW,249,0.0,1.0,91,0.01,,,0.08,,2013-06-25 10:33:00,
2013-06-25 06:52:00,66.0,63.0,29.89,WSW,249,0.0,1.0,90,0.00,,,0.08,,2013-06-25 10:52:00,
2013-06-25 07:22:00,66.0,63.0,29.89,WSW,249,0.0,1.0,91,0.00,,,0.08,,2013-06-25 11:22:00,
2013-06-25 07:34:00,67.0,64.0,29.89,WSW,249,0.0,1.0,90,0.00,,,0.08,,2013-06-25 11:34:00,
2013-06-25 07:43:00,68.0,65.0,29.89,WSW,245,0.0,1.0,90,0.00,,,0.08,,2013-06-25 11:43:00,
2013-06-25 07:52:00,68.0,65.0,29.89,WSW,245,0.0,1.0,90,0.00,,,0.08,,2013-06-25 11:52:00,
2013-06-25 08:02:00,69.0,66.0,29.89,WSW,245,0.0,2.0,89,0.00,,,0.08,,2013-06-25 12:02:00,
2013-06-25 08:22:00,70.0,66.0,29.88,WSW,245,0.0,1.0,87,0.00,,,0.08,,2013-06-25 12:22:00,
2013-06-25 08:33:00,71.0,66.0,29.88,WSW,245,0.0,1.0,85,0.00,,,0.08,,2013-06-25 12:33:00,
2013-06-25 08:55:00,71.0,66.0,29.88,WSW,245,0.0,1.0,85,0.00,,,0.08,,2013-06-25 12:55:00,
2013-06-25 09:12:00,72.0,67.0,29.88,WSW,245,0.0,1.0,83,0.00,,,0.08,,2013-06-25 13:12:00,
2013-06-25 09:22:00,73.0,67.0,29.88,WSW,245,0.0,1.0,81,0.00,,,0.08,,2013-06-25 13:22:00,
2013-06-25 09:42:00,75.0,68.0,29.87,WSW,245,0.0,1.0,78,0.00,,,0.08,,2013-06-25 13:42:00,
2013-06-25 09:53:00,75.0,68.0,29.87,WSW,245,0.0,1.0,78,0.00,,,0.08,,2013-06-25 13:53:00,
2013-06-25 10:02:00,76.0,68.0,29.87,WSW,245,0.0,1.0,76,0.00,,,0.08,,2013-06-25 14:02:00,
2013-06-25 10:11:00,76.0,68.0,29.87,WSW,245,0.0,1.0,76,0.00,,,0.08,,2013-06-25 14:11:00,
2013-06-25 10:23:00,77.0,68.0,29.87,WSW,245,0.0,3.0,75,0.00,,,0.08,,2013-06-25 14:23:00,
2013-06-25 10:34:00,78.0,68.0,29.87,SSW,204,4.0,7.0,72,0.00,,,0.08,,2013-06-25 14:34:00,
2013-06-25 10:43:00,78.0,68.0,29.87,SSW,204,4.0,7.0,72,0.00,,,0.08,,2013-06-25 14:43:00,
2013-06-25 10:53:00,79.0,69.0,29.88,WSW,257,0.0,6.0,72,0.00,,,0.08,,2013-06-25 14:53:00,
2013-06-25 11:11:00,81.0,67.0,29.88,WSW,253,5.0,8.0,63,0.00,,,0.08,,2013-06-25 15:11:00,
2013-06-25 11:22:00,82.0,67.0,29.88,WSW,252,4.0,10.0,61,0.00,,,0.08,,2013-06-25 15:22:00,
2013-06-25 11:32:00,82.0,67.0,29.87,WSW,243,3.0,8.0,60,0.00,,,0.08,,2013-06-25 15:32:00,
2013-06-25 11:44:00,82.0,67.0,29.87,WSW,243,3.0,8.0,60,0.00,,,0.08,,2013-06-25 15:44:00,
2013-06-25 11:53:00,82.0,66.0,29.87,WNW,286,7.0,10.0,59,0.00,,,0.08,,2013-06-25 15:53:00,
2013-06-25 12:03:00,82.0,66.0,29.87,WNW,286,7.0,10.0,59,0.00,,,0.08,,2013-06-25 16:03:00,
2013-06-25 12:12:00,83.0,68.0,29.87,WNW,297,3.0,11.0,60,0.00,,,0.08,,2013-06-25 16:12:00,
2013-06-25 12:23:00,83.0,67.0,29.86,WNW,302,5.0,8.0,59,0.00,,,0.08,,2013-06-25 16:23:00,
2013-06-25 12:44:00,83.0,67.0,29.86,West,274,4.0,10.0,58,0.00,,,0.08,,2013-06-25 16:44:00,
2013-06-25 12:52:00,84.0,67.0,29.86,WNW,283,3.0,9.0,56,0.00,,,0.08,,2013-06-25 16:52:00,
2013-06-25 13:01:00,84.0,67.0,29.86,WNW,283,3.0,9.0,56,0.00,,,0.08,,2013-06-25 17:01:00,
2013-06-25 13:11:00,84.0,66.0,29.85,West,268,6.0,13.0,54,0.00,,,0.08,,2013-06-25 17:11:00,
2013-06-25 13:22:00,84.0,67.0,29.85,WNW,291,6.0,10.0,57,0.00,,,0.08,,2013-06-25 17:22:00,
2013-06-25 13:33:00,84.0,67.0,29.85,WNW,291,6.0,10.0,57,0.00,,,0.08,,2013-06-25 17:33:00,
2013-06-25 13:44:00,85.0,65.0,29.84,West,269,4.0,8.0,52,0.00,,,0.08,,2013-06-25 17:44:00,
2013-06-25 14:12:00,85.0,67.0,29.83,SW,216,3.0,11.0,55,0.00,,,0.08,,2013-06-25 18:12:00,
2013-06-25 14:23:00,85.0,66.0,29.82,SW,232,4.0,10.0,54,0.00,,,0.08,,2013-06-25 18:23:00,
2013-06-25 14:44:00,86.0,68.0,29.81,SSW,199,3.0,9.0,55,0.00,,,0.08,,2013-06-25 18:44:00,
2013-06-25 14:53:00,86.0,67.0,29.80,SSW,207,2.0,11.0,53,0.00,,,0.08,,2013-06-25 18:53:00,
2013-06-25 15:01:00,86.0,67.0,29.80,SSW,207,2.0,11.0,53,0.00,,,0.08,,2013-06-25 19:01:00,
2013-06-25 15:12:00,87.0,68.0,29.80,SSW,202,3.0,12.0,53,0.00,,,0.08,,2013-06-25 19:12:00,
2013-06-25 15:33:00,86.0,66.0,29.80,SW,221,5.0,12.0,52,0.00,,,0.08,,2013-06-25 19:33:00,
2013-06-25 15:44:00,86.0,67.0,29.79,SSW,212,4.0,12.0,53,0.00,,,0.08,,2013-06-25 19:44:00,
2013-06-25 15:54:00,86.0,66.0,29.78,SSW,198,5.0,14.0,52,0.00,,,0.08,,2013-06-25 19:54:00,
2013-06-25 16:02:00,86.0,66.0,29.78,SSW,198,5.0,14.0,52,0.00,,,0.08,,2013-06-25 20:02:00,
2013-06-25 16:11:00,87.0,67.0,29.77,SSW,201,3.0,8.0,52,0.00,,,0.08,,2013-06-25 20:11:00,
2013-06-25 16:22:00,86.0,67.0,29.76,SW,220,3.0,12.0,53,0.00,,,0.08,,2013-06-25 20:22:00,
2013-06-25 16:33:00,86.0,67.0,29.76,SW,220,3.0,12.0,53,0.00,,,0.08,,2013-06-25 20:33:00,
2013-06-25 16:42:00,87.0,68.0,29.75,SW,232,2.0,8.0,54,0.00,,,0.08,,2013-06-25 20:42:00,
2013-06-25 16:52:00,87.0,69.0,29.75,SSW,195,2.0,9.0,55,0.00,,,0.08,,2013-06-25 20:52:00,
2013-06-25 17:01:00,87.0,69.0,29.75,SSW,195,2.0,9.0,55,0.00,,,0.08,,2013-06-25 21:01:00,
2013-06-25 17:11:00,87.0,69.0,29.75,SW,214,4.0,12.0,55,0.00,,,0.08,,2013-06-25 21:11:00,
2013-06-25 17:22:00,86.0,69.0,29.75,East,95,1.0,7.0,58,0.00,,,0.08,,2013-06-25 21:22:00,
2013-06-25 17:34:00,86.0,71.0,29.75,ENE,78,3.0,14.0,61,0.00,,,0.08,,2013-06-25 21:34:00,
2013-06-25 17:43:00,86.0,71.0,29.75,ENE,78,3.0,14.0,61,0.00,,,0.08,,2013-06-25 21:43:00,
2013-06-25 17:53:00,86.0,71.0,29.74,SSW,203,2.0,9.0,61,0.00,,,0.08,,2013-06-25 21:53:00,
2013-06-25 18:01:00,86.0,71.0,29.73,SW,226,1.0,8.0,61,0.00,,,0.08,,2013-06-25 22:01:00,
2013-06-25 18:11:00,86.0,71.0,29.73,SW,226,1.0,8.0,61,0.00,,,0.08,,2013-06-25 22:11:00,
2013-06-25 18:22:00,85.0,71.0,29.72,SSE,162,0.0,5.0,63,0.00,,,0.08,,2013-06-25 22:22:00,
2013-06-25 18:34:00,85.0,70.0,29.73,SSW,206,2.0,11.0,62,0.00,,,0.08,,2013-06-25 22:34:00,
2013-06-25 18:42:00,85.0,70.0,29.73,SSW,206,2.0,11.0,62,0.00,,,0.08,,2013-06-25 22:42:00,
2013-06-25 18:52:00,84.0,70.0,29.73,SSW,211,3.0,8.0,63,0.00,,,0.08,,2013-06-25 22:52:00,
2013-06-25 19:01:00,83.0,69.0,29.73,SSW,193,2.0,7.0,63,0.00,,,0.08,,2013-06-25 23:01:00,
2013-06-25 19:11:00,83.0,69.0,29.73,SSW,193,2.0,7.0,63,0.00,,,0.08,,2013-06-25 23:11:00,
2013-06-25 19:22:00,80.0,71.0,29.73,ENE,68,0.0,4.0,75,0.11,,,0.19,,2013-06-25 23:22:00,
2013-06-25 19:34:00,77.0,70.0,29.73,SW,226,0.0,5.0,80,0.14,,,0.22,,2013-06-25 23:34:00,
2013-06-25 19:44:00,77.0,70.0,29.73,SW,226,0.0,5.0,80,0.14,,,0.22,,2013-06-25 23:44:00,
2013-06-25 19:52:00,76.0,70.0,29.75,NW,312,4.0,24.0,83,0.15,,,0.23,,2013-06-25 23:52:00,
2013-06-25 20:02:00,72.0,67.0,29.75,SW,224,3.0,20.0,84,0.36,,,0.44,,2013-06-26 00:02:00,
2013-06-25 20:11:00,72.0,67.0,29.75,SW,224,3.0,20.0,84,0.36,,,0.44,,2013-06-26 00:11:00,
2013-06-25 20:22:00,72.0,67.0,29.73,SW,214,0.0,1.0,85,0.26,,,0.45,,2013-06-26 00:22:00,
2013-06-25 20:33:00,71.0,67.0,29.73,SSW,213,0.0,0.0,87,0.23,,,0.45,,2013-06-26 00:33:00,
2013-06-25 20:42:00,71.0,67.0,29.73,SSW,213,0.0,0.0,87,0.23,,,0.45,,2013-06-26 00:42:00,
2013-06-25 20:53:00,71.0,67.0,29.73,SSW,213,0.0,0.0,88,0.22,,,0.45,,2013-06-26 00:53:00,
2013-06-25 21:01:00,71.0,67.0,29.73,SW,216,0.0,5.0,88,0.01,,,0.45,,2013-06-26 01:01:00,
2013-06-25 21:11:00,71.0,67.0,29.73,SW,216,0.0,5.0,88,0.01,,,0.45,,2013-06-26 01:11:00,
2013-06-25 21:33:00,72.0,68.0,29.74,WNW,299,0.0,3.0,87,0.00,,,0.45,,2013-06-26 01:33:00,
2013-06-25 21:43:00,72.0,68.0,29.73,WNW,298,0.0,4.0,87,0.00,,,0.38,,2013-06-26 01:43:00,
2013-06-25 21:53:00,71.0,67.0,29.73,SSW,193,0.0,5.0,87,0.00,,,0.38,,2013-06-26 01:53:00,
2013-06-25 22:02:00,71.0,67.0,29.74,SW,233,0.0,5.0,88,0.00,,,0.38,,2013-06-26 02:02:00,
2013-06-25 22:11:00,71.0,67.0,29.74,SW,233,0.0,5.0,88,0.00,,,0.38,,2013-06-26 02:11:00,
2013-06-25 22:34:00,71.0,67.0,29.74,WSW,250,1.0,4.0,88,0.00,,,0.38,,2013-06-26 02:34:00,
2013-06-25 22:43:00,72.0,68.0,29.74,WSW,256,0.0,4.0,88,0.00,,,0.38,,2013-06-26 02:43:00,
2013-06-25 22:53:00,72.0,68.0,29.75,WSW,253,0.0,4.0,87,0.00,,,0.38,,2013-06-26 02:53:00,
2013-06-25 23:02:00,72.0,68.0,29.75,WSW,253,0.0,4.0,87,0.00,,,0.38,,2013-06-26 03:02:00,
2013-06-25 23:11:00,72.0,68.0,29.74,WSW,253,0.0,4.0,87,0.00,,,0.38,,2013-06-26 03:11:00,
2013-06-25 23:22:00,72.0,68.0,29.74,West,272,2.0,6.0,87,0.00,,,0.38,,2013-06-26 03:22:00,
2013-06-25 23:33:00,72.0,68.0,29.74,WNW,292,0.0,7.0,87,0.00,,,0.38,,2013-06-26 03:33:00,
2013-06-25 23:43:00,72.0,68.0,29.74,WNW,292,0.0,7.0,87,0.00,,,0.38,,2013-06-26 03:43:00,
2013-06-25 23:52:00,72.0,68.0,29.75,WNW,292,1.0,5.0,86,0.00,,,0.38,,2013-06-26 03:52:00,